Weather History for KFNB - October, 2013

Change the Weather History Date:

Monday, October 7, 2013

  Actual Average Record
Temperature  
Mean Temperature 57 °F -  
Max Temperature 75 °F 71 °F 90 °F (1949)
Min Temperature 41 °F 44 °F 21 °F (2000)
Degree Days  
Heating Degree Days 8    
Growing Degree Days 7 (Base 50)    
Moisture  
Dew Point 41 °F    
Average Humidity 59    
Maximum Humidity 86    
Minimum Humidity 29    
Precipitation  
Precipitation 0.00 in - - ()
Sea Level Pressure  
Sea Level Pressure 30.06 in    
Wind  
Wind Speed 7 mph (WSW)    
Max Wind Speed 12 mph    
Max Gust Speed 20 mph    
Visibility 10 miles    
Events      
Averages and records for this station are not official NWS values.
T = Trace of Precipitation, MM = Missing Value Source: NWS Daily Summary

Daily Weather History Graph

Daily Weather History Graph

Search for Another Location

Airport or City:

Trip Planner

Search our weather history database for the weather conditions in past years. The results will help you decide how hot, cold, wet, or windy it might be!

Date:

Astronomy

Oct. 07, 2013 Rise Set
Actual Time 7:24 AM CDT 6:54 PM CDT
Civil Twilight 6:57 AM CDT 7:21 PM CDT
Nautical Twilight 6:26 AM CDT 7:53 PM CDT
Astronomical Twilight 5:54 AM CDT 8:24 PM CDT
Moon 10:15 AM CDT (10/7) 8:40 PM CDT (10/7)
Length of Visible Light 12h 23m
Length of Day
11h 29m
Waxing Crescent, 9% of the Moon is Illuminated
Oct 7
Waxing Crescent
Oct 11
First Quarter
Oct 18
Full
Oct 26
Last Quarter
Nov 3
New

Hourly Weather History & Observations

Time (CDT) Temp. Windchill Dew Point Humidity Pressure Visibility Wind Dir Wind Speed Gust Speed Precip Events Conditions
12:53 AM 44.1 °F 40.8 °F 37.0 °F 76% 30.01 in 10.0 mi WNW 5.8 mph - N/A   Clear
1:53 AM 44.1 °F 39.0 °F 37.0 °F 76% 30.03 in 10.0 mi West 9.2 mph - N/A   Clear
2:53 AM 44.1 °F 40.1 °F 36.0 °F 73% 30.04 in 10.0 mi West 6.9 mph - N/A   Clear
3:53 AM 44.1 °F 40.1 °F 37.0 °F 76% 30.04 in 10.0 mi WNW 6.9 mph - N/A   Clear
4:53 AM 41.0 °F 37.1 °F 36.0 °F 82% 30.05 in 10.0 mi WNW 5.8 mph - N/A   Clear
5:53 AM 41.0 °F 38.0 °F 37.0 °F 86% 30.07 in 10.0 mi West 4.6 mph - N/A   Clear
6:53 AM 42.1 °F 37.7 °F 37.9 °F 85% 30.09 in 10.0 mi West 6.9 mph - N/A   Clear
7:53 AM 43.0 °F 39.5 °F 39.0 °F 86% 30.10 in 10.0 mi West 5.8 mph - N/A   Clear
8:53 AM 48.9 °F - 41.0 °F 74% 30.11 in 10.0 mi West 3.5 mph - N/A   Clear
9:53 AM 55.0 °F - 44.1 °F 67% 30.11 in 10.0 mi WSW 4.6 mph - N/A   Clear
10:53 AM 62.1 °F - 46.9 °F 58% 30.12 in 10.0 mi Variable 4.6 mph - N/A   Clear
11:53 AM 68.0 °F - 42.1 °F 39% 30.11 in 10.0 mi West 10.4 mph - N/A   Clear
12:53 PM 70.0 °F - 42.1 °F 36% 30.10 in 10.0 mi WSW 9.2 mph - N/A   Clear
1:53 PM 73.0 °F - 41.0 °F 31% 30.07 in 10.0 mi WSW 11.5 mph - N/A   Clear
2:53 PM 73.9 °F - 39.9 °F 29% 30.06 in 10.0 mi WSW 11.5 mph 17.3 mph N/A   Clear
3:53 PM 73.9 °F - 39.9 °F 29% 30.03 in 10.0 mi SW 9.2 mph 19.6 mph N/A   Clear
4:53 PM 73.9 °F - 39.9 °F 29% 30.03 in 10.0 mi SW 9.2 mph - N/A   Clear
5:53 PM 72.0 °F - 41.0 °F 33% 30.02 in 10.0 mi SSW 8.1 mph - N/A   Clear
6:53 PM 64.9 °F - 42.1 °F 43% 30.03 in 10.0 mi SSW 6.9 mph - N/A   Clear
7:53 PM 62.1 °F - 42.1 °F 48% 30.04 in 10.0 mi South 4.6 mph - N/A   Clear
8:53 PM 59.0 °F - 44.1 °F 58% 30.04 in 10.0 mi South 5.8 mph - N/A   Clear
9:53 PM 57.0 °F - 44.1 °F 62% 30.05 in 10.0 mi South 6.9 mph - N/A   Clear
10:53 PM 55.0 °F - 44.1 °F 67% 30.05 in 10.0 mi South 5.8 mph - N/A   Clear
11:53 PM 55.0 °F - 43.0 °F 64% 30.04 in 10.0 mi South 8.1 mph - N/A   Clear